Year,Month,Day,Hour,Minute,Value (Times are PST for temperature in C)
2016,07,20,00,00,16.80
2016,07,20,00,01,16.80
2016,07,20,00,02,16.70
2016,07,20,00,03,16.70
2016,07,20,00,04,16.70
2016,07,20,00,05,16.70
2016,07,20,00,06,16.60
2016,07,20,00,07,16.60
2016,07,20,00,08,16.60
2016,07,20,00,09,16.60
2016,07,20,00,10,16.60
2016,07,20,00,11,16.60
2016,07,20,00,12,16.60
2016,07,20,00,13,16.60
2016,07,20,00,14,16.50
2016,07,20,00,15,16.50
2016,07,20,00,16,16.50
2016,07,20,00,17,16.50
2016,07,20,00,18,16.50
2016,07,20,00,19,16.50
2016,07,20,00,20,16.50
2016,07,20,00,21,16.50
2016,07,20,00,22,16.50
2016,07,20,00,23,16.50
2016,07,20,00,24,16.50
2016,07,20,00,25,16.50
2016,07,20,00,26,16.60
2016,07,20,00,27,16.60
2016,07,20,00,28,16.60
2016,07,20,00,29,16.60
2016,07,20,00,30,16.60
2016,07,20,00,31,16.60
2016,07,20,00,32,16.60
2016,07,20,00,33,16.60
2016,07,20,00,34,16.60
2016,07,20,00,35,16.60
2016,07,20,00,36,16.60
2016,07,20,00,37,16.60
2016,07,20,00,38,16.60
2016,07,20,00,39,16.60
2016,07,20,00,40,16.60
2016,07,20,00,41,16.60
2016,07,20,00,42,16.60
2016,07,20,00,43,16.60
2016,07,20,00,44,16.60
2016,07,20,00,45,16.60
2016,07,20,00,46,16.60
2016,07,20,00,47,16.60
2016,07,20,00,48,16.60
2016,07,20,00,49,16.60
2016,07,20,00,50,16.60
2016,07,20,00,51,16.60
2016,07,20,00,52,16.60
2016,07,20,00,53,16.60
2016,07,20,00,54,16.50
2016,07,20,00,55,16.50
2016,07,20,00,56,16.50
2016,07,20,00,57,16.50
2016,07,20,00,58,16.50
2016,07,20,00,59,16.50
2016,07,20,01,00,16.50
2016,07,20,01,01,16.40
2016,07,20,01,02,16.40
2016,07,20,01,03,16.40
2016,07,20,01,04,16.40
2016,07,20,01,05,16.40
2016,07,20,01,06,16.30
2016,07,20,01,07,16.30
2016,07,20,01,08,16.30
2016,07,20,01,09,16.30
2016,07,20,01,10,16.30
2016,07,20,01,11,16.30
2016,07,20,01,12,16.20
2016,07,20,01,13,16.20
2016,07,20,01,14,16.20
2016,07,20,01,15,16.20
2016,07,20,01,16,16.20
2016,07,20,01,17,16.20
2016,07,20,01,18,16.10
2016,07,20,01,19,16.10
2016,07,20,01,20,16.10
2016,07,20,01,21,16.10
2016,07,20,01,22,16.10
2016,07,20,01,23,16.00
2016,07,20,01,24,16.00
2016,07,20,01,25,16.00
2016,07,20,01,26,16.00
2016,07,20,01,27,15.90
2016,07,20,01,28,15.90
2016,07,20,01,29,15.90
2016,07,20,01,30,15.90
2016,07,20,01,31,15.90
2016,07,20,01,32,15.90
2016,07,20,01,33,15.80
2016,07,20,01,34,15.80
2016,07,20,01,35,15.80
2016,07,20,01,36,15.80
2016,07,20,01,37,15.80
2016,07,20,01,38,15.80
2016,07,20,01,39,15.80
2016,07,20,01,40,15.80
2016,07,20,01,41,15.80
2016,07,20,01,42,15.80
2016,07,20,01,43,15.80
2016,07,20,01,44,15.80
2016,07,20,01,45,15.80
2016,07,20,01,46,15.70
2016,07,20,01,47,15.70
2016,07,20,01,48,15.80
2016,07,20,01,49,15.80
2016,07,20,01,50,15.80
2016,07,20,01,51,15.80
2016,07,20,01,52,15.80
2016,07,20,01,53,15.80
2016,07,20,01,54,15.80
2016,07,20,01,55,15.80
2016,07,20,01,56,15.80
2016,07,20,01,57,15.80
2016,07,20,01,58,15.80
2016,07,20,01,59,15.80
2016,07,20,02,00,15.80
2016,07,20,02,01,15.80
2016,07,20,02,02,15.80
2016,07,20,02,03,15.80
2016,07,20,02,04,15.80
2016,07,20,02,05,15.80
2016,07,20,02,06,15.80
2016,07,20,02,07,15.80
2016,07,20,02,08,15.80
2016,07,20,02,09,15.80
2016,07,20,02,10,15.80
2016,07,20,02,11,15.80
2016,07,20,02,12,15.80
2016,07,20,02,13,15.80
2016,07,20,02,14,15.80
2016,07,20,02,15,15.80
2016,07,20,02,16,15.80
2016,07,20,02,17,15.80
2016,07,20,02,18,15.80
2016,07,20,02,19,15.80
2016,07,20,02,20,15.80
2016,07,20,02,21,15.80
2016,07,20,02,22,15.80
2016,07,20,02,23,15.80
2016,07,20,02,24,15.80
2016,07,20,02,25,15.80
2016,07,20,02,26,15.80
2016,07,20,02,27,15.80
2016,07,20,02,28,15.80
2016,07,20,02,29,15.80
2016,07,20,02,30,15.80
2016,07,20,02,31,15.80
2016,07,20,02,32,15.80
2016,07,20,02,33,15.80
2016,07,20,02,34,15.80
2016,07,20,02,35,15.80
2016,07,20,02,36,15.80
2016,07,20,02,37,15.70
2016,07,20,02,38,15.70
2016,07,20,02,39,15.70
2016,07,20,02,40,15.70
2016,07,20,02,41,15.70
2016,07,20,02,42,15.70
2016,07,20,02,43,15.70
2016,07,20,02,44,15.70
2016,07,20,02,45,15.70
2016,07,20,02,46,15.60
2016,07,20,02,47,15.60
2016,07,20,02,48,15.60
2016,07,20,02,49,15.60
2016,07,20,02,50,15.50
2016,07,20,02,51,15.50
2016,07,20,02,52,15.50
2016,07,20,02,53,15.40
2016,07,20,02,54,15.40
2016,07,20,02,55,15.40
2016,07,20,02,56,15.40
2016,07,20,02,57,15.30
2016,07,20,02,58,15.30
2016,07,20,02,59,15.30
2016,07,20,03,00,15.30
2016,07,20,03,01,15.20
2016,07,20,03,02,15.20
2016,07,20,03,06,15.00
2016,07,20,03,07,15.00
2016,07,20,03,08,15.00
2016,07,20,03,09,15.00
2016,07,20,03,10,15.00
2016,07,20,03,11,15.00
2016,07,20,03,12,15.00
2016,07,20,03,13,15.00
2016,07,20,03,14,15.00
2016,07,20,03,15,15.00
2016,07,20,03,16,15.00
2016,07,20,03,17,14.90
2016,07,20,03,18,14.90
2016,07,20,03,19,14.80
2016,07,20,03,20,14.80
2016,07,20,03,21,14.80
2016,07,20,03,22,14.70
2016,07,20,03,23,14.70
2016,07,20,03,24,14.70
2016,07,20,03,25,14.70
2016,07,20,03,26,14.70
2016,07,20,03,27,14.60
2016,07,20,03,28,14.60
2016,07,20,03,29,14.60
2016,07,20,03,30,14.60
2016,07,20,03,31,14.50
2016,07,20,03,32,14.50
2016,07,20,03,33,14.50
2016,07,20,03,34,14.50
2016,07,20,03,35,14.40
2016,07,20,03,36,14.40
2016,07,20,03,37,14.40
2016,07,20,03,38,14.40
2016,07,20,03,39,14.40
2016,07,20,03,40,14.40
2016,07,20,03,41,14.40
2016,07,20,03,42,14.40
2016,07,20,03,43,14.40
2016,07,20,03,44,14.40
2016,07,20,03,45,14.40
2016,07,20,03,46,14.40
2016,07,20,03,47,14.40
2016,07,20,03,48,14.40
2016,07,20,03,49,14.40
2016,07,20,03,50,14.40
2016,07,20,03,51,14.40
2016,07,20,03,52,14.30
2016,07,20,03,53,14.30
2016,07,20,03,54,14.30
2016,07,20,03,55,14.30
2016,07,20,03,56,14.30
2016,07,20,03,57,14.30
2016,07,20,03,58,14.30
2016,07,20,03,59,14.30
2016,07,20,04,00,14.30
2016,07,20,04,01,14.30
2016,07,20,04,02,14.20
2016,07,20,04,03,14.20
2016,07,20,04,04,14.20
2016,07,20,04,05,14.20
2016,07,20,04,06,14.20
2016,07,20,04,07,14.10
2016,07,20,04,08,14.10
2016,07,20,04,09,14.10
2016,07,20,04,10,14.10
2016,07,20,04,11,14.10
2016,07,20,04,12,14.00
2016,07,20,04,13,14.00
2016,07,20,04,14,14.00
2016,07,20,04,15,13.90
2016,07,20,04,16,13.90
2016,07,20,04,17,13.90
2016,07,20,04,18,13.90
2016,07,20,04,19,13.80
2016,07,20,04,20,13.80
2016,07,20,04,21,13.80
2016,07,20,04,22,13.80
2016,07,20,04,23,13.80
2016,07,20,04,24,13.80
2016,07,20,04,25,13.70
2016,07,20,04,26,13.70
2016,07,20,04,27,13.70
2016,07,20,04,28,13.70
2016,07,20,04,29,13.70
2016,07,20,04,30,13.60
2016,07,20,04,31,13.60
2016,07,20,04,32,13.60
2016,07,20,04,33,13.60
2016,07,20,04,34,13.60
2016,07,20,04,35,13.50
2016,07,20,04,36,13.50
2016,07,20,04,37,13.50
2016,07,20,04,38,13.40
2016,07,20,04,39,13.40
2016,07,20,04,40,13.40
2016,07,20,04,41,13.40
2016,07,20,04,42,13.40
2016,07,20,04,43,13.40
2016,07,20,04,44,13.30
2016,07,20,04,45,13.30
2016,07,20,04,46,13.30
2016,07,20,04,47,13.30
2016,07,20,04,48,13.30
2016,07,20,04,49,13.30
2016,07,20,04,50,13.30
2016,07,20,04,51,13.30
2016,07,20,04,52,13.20
2016,07,20,04,53,13.20
2016,07,20,04,54,13.20
2016,07,20,04,55,13.20
2016,07,20,04,56,13.20
2016,07,20,04,57,13.20
2016,07,20,04,58,13.10
2016,07,20,04,59,13.10
2016,07,20,05,00,13.10
2016,07,20,05,01,13.10
2016,07,20,05,02,13.10
2016,07,20,05,03,13.00
2016,07,20,05,04,13.00
2016,07,20,05,05,13.00
2016,07,20,05,06,13.00
2016,07,20,05,07,12.90
2016,07,20,05,08,12.90
2016,07,20,05,09,12.90
2016,07,20,05,10,12.90
2016,07,20,05,11,12.90
2016,07,20,05,12,12.90
2016,07,20,05,13,12.80
2016,07,20,05,14,12.80
2016,07,20,05,15,12.80
2016,07,20,05,16,12.80
2016,07,20,05,17,12.80
2016,07,20,05,18,12.80
2016,07,20,05,19,12.80
2016,07,20,05,20,12.70
2016,07,20,05,21,12.70
2016,07,20,05,22,12.70
2016,07,20,05,23,12.70
2016,07,20,05,24,12.70
2016,07,20,05,25,12.70
2016,07,20,05,26,12.70
2016,07,20,05,27,12.70
2016,07,20,05,28,12.70
2016,07,20,05,29,12.70
2016,07,20,05,30,12.70
2016,07,20,05,31,12.70
2016,07,20,05,32,12.70
2016,07,20,05,33,12.70
2016,07,20,05,34,12.70
2016,07,20,05,35,12.70
2016,07,20,05,36,12.60
2016,07,20,05,37,12.60
2016,07,20,05,38,12.60
2016,07,20,05,39,12.60
2016,07,20,05,40,12.60
2016,07,20,05,41,12.60
2016,07,20,05,42,12.60
2016,07,20,05,43,12.60
2016,07,20,05,44,12.60
2016,07,20,05,45,12.60
2016,07,20,05,46,12.60
2016,07,20,05,47,12.60
2016,07,20,05,48,12.50
2016,07,20,05,49,12.50
2016,07,20,05,50,12.50
2016,07,20,05,51,12.50
2016,07,20,05,52,12.50
2016,07,20,05,53,12.50
2016,07,20,05,54,12.50
2016,07,20,05,55,12.50
2016,07,20,05,56,12.40
2016,07,20,05,57,12.40
2016,07,20,05,58,12.40
2016,07,20,05,59,12.40
2016,07,20,06,00,12.40
2016,07,20,06,01,12.40
2016,07,20,06,02,12.40
2016,07,20,06,03,12.40
2016,07,20,06,04,12.40
2016,07,20,06,05,12.40
2016,07,20,06,06,12.40
2016,07,20,06,07,12.40
2016,07,20,06,08,12.40
2016,07,20,06,09,12.40
2016,07,20,06,10,12.40
2016,07,20,06,11,12.40
2016,07,20,06,12,12.40
2016,07,20,06,13,12.40
2016,07,20,06,14,12.40
2016,07,20,06,15,12.40
2016,07,20,06,16,12.40
2016,07,20,06,17,12.40
2016,07,20,06,18,12.50
2016,07,20,06,19,12.50
2016,07,20,06,20,12.50
2016,07,20,06,21,12.50
2016,07,20,06,22,12.50
2016,07,20,06,23,12.60
2016,07,20,06,24,12.60
2016,07,20,06,25,12.60
2016,07,20,06,26,12.60
2016,07,20,06,27,12.60
2016,07,20,06,28,12.60
2016,07,20,06,29,12.70
2016,07,20,06,30,12.70
2016,07,20,06,31,12.70
2016,07,20,06,32,12.70
2016,07,20,06,33,12.70
2016,07,20,06,34,12.80
2016,07,20,06,35,12.80
2016,07,20,06,36,12.80
2016,07,20,06,37,12.80
2016,07,20,06,38,12.80
2016,07,20,06,39,12.90
2016,07,20,06,40,12.90
2016,07,20,06,41,12.90
2016,07,20,06,42,12.90
2016,07,20,06,43,13.00
2016,07,20,06,44,13.00
2016,07,20,06,45,13.00
2016,07,20,06,46,13.10
2016,07,20,06,47,13.10
2016,07,20,06,48,13.10
2016,07,20,06,49,13.10
2016,07,20,06,50,13.20
2016,07,20,06,51,13.20
2016,07,20,06,52,13.20
2016,07,20,06,53,13.20
2016,07,20,06,54,13.20
2016,07,20,06,55,13.30
2016,07,20,06,56,13.30
2016,07,20,06,57,13.30
2016,07,20,06,58,13.30
2016,07,20,06,59,13.40
2016,07,20,07,00,13.40
2016,07,20,07,01,13.40
2016,07,20,07,02,13.40
2016,07,20,07,03,13.40
2016,07,20,07,04,13.50
2016,07,20,07,05,13.50
2016,07,20,07,06,13.50
2016,07,20,07,07,13.60
2016,07,20,07,08,13.60
2016,07,20,07,09,13.60
2016,07,20,07,10,13.60
2016,07,20,07,11,13.60
2016,07,20,07,12,13.70
2016,07,20,07,13,13.70
2016,07,20,07,14,13.70
2016,07,20,07,15,13.70
2016,07,20,07,16,13.70
2016,07,20,07,17,13.80
2016,07,20,07,18,13.80
2016,07,20,07,19,13.80
2016,07,20,07,20,13.80
2016,07,20,07,21,13.90
2016,07,20,07,22,13.90
2016,07,20,07,23,14.00
2016,07,20,07,24,14.00
2016,07,20,07,25,14.10
2016,07,20,07,26,14.10
2016,07,20,07,27,14.10
2016,07,20,07,28,14.20
2016,07,20,07,29,14.20
2016,07,20,07,30,14.20
2016,07,20,07,31,14.20
2016,07,20,07,32,14.30
2016,07,20,07,33,14.30
2016,07,20,07,34,14.30
2016,07,20,07,35,14.40
2016,07,20,07,36,14.40
2016,07,20,07,37,14.40
2016,07,20,07,38,14.40
2016,07,20,07,39,14.50
2016,07,20,07,40,14.50
2016,07,20,07,41,14.60
2016,07,20,07,42,14.60
2016,07,20,07,43,14.60
2016,07,20,07,44,14.70
2016,07,20,07,45,14.70
2016,07,20,07,46,14.70
2016,07,20,07,47,14.70
2016,07,20,07,48,14.80
2016,07,20,07,49,14.80
2016,07,20,07,50,14.80
2016,07,20,07,51,14.80
2016,07,20,07,52,14.90
2016,07,20,07,53,14.90
2016,07,20,07,54,15.00
2016,07,20,07,55,15.00
2016,07,20,07,56,15.00
2016,07,20,07,57,15.00
2016,07,20,07,58,15.00
2016,07,20,07,59,15.00
2016,07,20,08,00,15.00
2016,07,20,08,01,15.00
2016,07,20,08,02,15.00
2016,07,20,08,03,15.00
2016,07,20,08,04,15.00
2016,07,20,08,05,15.00
2016,07,20,08,06,15.00
2016,07,20,08,07,15.00
2016,07,20,08,08,15.10
2016,07,20,08,09,15.20
2016,07,20,08,10,15.30
2016,07,20,08,11,15.30
2016,07,20,08,12,15.40
2016,07,20,08,13,15.40
2016,07,20,08,14,15.50
2016,07,20,08,15,15.60
2016,07,20,08,16,15.70
2016,07,20,08,17,15.80
2016,07,20,08,18,16.00
2016,07,20,08,19,16.00
2016,07,20,08,20,16.10
2016,07,20,08,21,16.20
2016,07,20,08,22,16.20
2016,07,20,08,23,16.30
2016,07,20,08,24,16.40
2016,07,20,08,25,16.50
2016,07,20,08,26,16.60
2016,07,20,08,27,16.70
2016,07,20,08,28,16.80
2016,07,20,08,29,16.90
2016,07,20,08,30,17.10
2016,07,20,08,31,17.20
2016,07,20,08,32,17.30
2016,07,20,08,33,17.40
2016,07,20,08,34,17.50
2016,07,20,08,35,17.50
2016,07,20,08,36,17.60
2016,07,20,08,37,17.70
2016,07,20,08,38,17.80
2016,07,20,08,39,17.90
2016,07,20,08,40,18.00
2016,07,20,08,41,18.10
2016,07,20,08,42,18.10
2016,07,20,08,43,18.30
2016,07,20,08,44,18.30
2016,07,20,08,45,18.50
2016,07,20,08,46,18.60
2016,07,20,08,47,18.70
2016,07,20,08,48,18.70
2016,07,20,08,49,18.80
2016,07,20,08,50,18.80
2016,07,20,08,51,18.90
2016,07,20,08,52,18.90
2016,07,20,08,53,18.90
2016,07,20,08,54,18.90
2016,07,20,08,55,18.90
2016,07,20,08,56,19.00
2016,07,20,08,57,19.00
2016,07,20,08,58,19.00
2016,07,20,08,59,19.10
2016,07,20,09,00,19.10
2016,07,20,09,01,19.20
2016,07,20,09,02,19.20
2016,07,20,09,03,19.30
2016,07,20,09,04,19.30
2016,07,20,09,05,19.50
2016,07,20,09,06,19.50
2016,07,20,09,07,19.70
2016,07,20,09,08,19.70
2016,07,20,09,09,19.80
2016,07,20,09,10,19.80
2016,07,20,09,11,19.80
2016,07,20,09,12,19.90
2016,07,20,09,13,19.90
2016,07,20,09,14,19.90
2016,07,20,09,15,20.00
2016,07,20,09,16,20.00
2016,07,20,09,17,20.00
2016,07,20,09,18,20.00
2016,07,20,09,19,20.10
2016,07,20,09,20,20.10
2016,07,20,09,21,20.10
2016,07,20,09,22,20.20
2016,07,20,09,23,20.20
2016,07,20,09,24,20.20
2016,07,20,09,25,20.20
2016,07,20,09,26,20.20
2016,07,20,09,27,20.20
2016,07,20,09,28,20.20
2016,07,20,09,29,20.30
2016,07,20,09,30,20.30
2016,07,20,09,31,20.40
2016,07,20,09,32,20.40
2016,07,20,09,33,20.50
2016,07,20,09,34,20.60
2016,07,20,09,35,20.60
2016,07,20,09,36,20.70
2016,07,20,09,37,20.70
2016,07,20,09,38,20.70
2016,07,20,09,39,20.70
2016,07,20,09,40,20.80
2016,07,20,09,41,20.80
2016,07,20,09,42,20.90
2016,07,20,09,43,20.90
2016,07,20,09,44,21.00
2016,07,20,09,45,21.00
2016,07,20,09,46,21.00
2016,07,20,09,47,21.00
2016,07,20,09,48,21.10
2016,07,20,09,49,21.10
2016,07,20,09,50,21.10
2016,07,20,09,51,21.20
2016,07,20,09,52,21.20
2016,07,20,09,53,21.20
2016,07,20,09,54,21.20
2016,07,20,09,55,21.10
2016,07,20,09,56,21.10
2016,07,20,09,57,21.10
2016,07,20,09,58,21.20
2016,07,20,09,59,21.20
2016,07,20,10,00,21.20
2016,07,20,10,01,21.30
2016,07,20,10,02,21.30
2016,07,20,10,03,21.30
2016,07,20,10,04,21.30
2016,07,20,10,05,21.30
2016,07,20,10,06,21.30
2016,07,20,10,07,21.40
2016,07,20,10,08,21.50
2016,07,20,10,09,21.50
2016,07,20,10,10,21.50
2016,07,20,10,11,21.50
2016,07,20,10,12,21.40
2016,07,20,10,13,21.40
2016,07,20,10,14,21.40
2016,07,20,10,15,21.40
2016,07,20,10,16,21.40
2016,07,20,10,17,21.40
2016,07,20,10,18,21.40
2016,07,20,10,19,21.40
2016,07,20,10,20,21.30
2016,07,20,10,21,21.30
2016,07,20,10,22,21.30
2016,07,20,10,23,21.30
2016,07,20,10,24,21.30
2016,07,20,10,25,21.20
2016,07,20,10,26,21.20
2016,07,20,10,27,21.20
2016,07,20,10,28,21.20
2016,07,20,10,29,21.20
2016,07,20,10,30,21.10
2016,07,20,10,31,21.10
2016,07,20,10,32,21.10
2016,07,20,10,33,21.10
2016,07,20,10,34,21.10
2016,07,20,10,35,21.10
2016,07,20,10,36,21.10
2016,07,20,10,37,21.10
2016,07,20,10,38,21.10
2016,07,20,10,39,21.10
2016,07,20,10,40,21.20
2016,07,20,10,41,21.20
2016,07,20,10,42,21.30
2016,07,20,10,43,21.30
2016,07,20,10,44,21.40
2016,07,20,10,45,21.50
2016,07,20,10,46,21.60
2016,07,20,10,47,21.60
2016,07,20,10,48,21.60
2016,07,20,10,49,21.60
2016,07,20,10,50,21.60
2016,07,20,10,51,21.60
2016,07,20,10,52,21.70
2016,07,20,10,53,21.70
2016,07,20,10,54,21.80
2016,07,20,10,55,21.70
2016,07,20,10,56,21.70
2016,07,20,10,57,21.80
2016,07,20,10,58,21.80
2016,07,20,10,59,21.80
2016,07,20,11,00,21.80
2016,07,20,11,01,21.80
2016,07,20,11,02,21.80
2016,07,20,11,03,21.70
2016,07,20,11,04,21.70
2016,07,20,11,05,21.70
2016,07,20,11,06,21.80
2016,07,20,11,07,21.80
2016,07,20,11,08,21.80
2016,07,20,11,09,21.80
2016,07,20,11,10,21.80
2016,07,20,11,11,21.80
2016,07,20,11,12,21.80
2016,07,20,11,13,21.90
2016,07,20,11,14,21.90
2016,07,20,11,15,21.80
2016,07,20,11,16,21.90
2016,07,20,11,17,21.90
2016,07,20,11,18,22.00
2016,07,20,11,19,22.00
2016,07,20,11,20,22.00
2016,07,20,11,21,22.00
2016,07,20,11,22,22.10
2016,07,20,11,23,22.00
2016,07,20,11,24,22.00
2016,07,20,11,25,21.90
2016,07,20,11,26,21.80
2016,07,20,11,27,21.80
2016,07,20,11,28,21.80
2016,07,20,11,29,21.80
2016,07,20,11,30,21.80
2016,07,20,11,31,21.80
2016,07,20,11,32,21.80
2016,07,20,11,33,21.90
2016,07,20,11,34,22.00
2016,07,20,11,35,22.00
2016,07,20,11,36,22.10
2016,07,20,11,37,22.10
2016,07,20,11,38,22.20
2016,07,20,11,39,22.20
2016,07,20,11,40,22.30
2016,07,20,11,41,22.20
2016,07,20,11,42,22.20
2016,07,20,11,43,22.10
2016,07,20,11,44,22.00
2016,07,20,11,45,21.90
2016,07,20,11,46,21.80
2016,07,20,11,47,21.80
2016,07,20,11,48,21.70
2016,07,20,11,49,21.60
2016,07,20,11,50,21.60
2016,07,20,11,51,21.60
2016,07,20,11,52,21.60
2016,07,20,11,53,21.50
2016,07,20,11,54,21.50
2016,07,20,11,55,21.50
2016,07,20,11,56,21.40
2016,07,20,11,57,21.40
2016,07,20,11,58,21.30
2016,07,20,11,59,21.30
2016,07,20,12,00,21.20
2016,07,20,12,01,21.20
2016,07,20,12,02,21.20
2016,07,20,12,03,21.20
2016,07,20,12,04,21.20
2016,07,20,12,05,21.10
2016,07,20,12,06,21.10
2016,07,20,12,07,21.10
2016,07,20,12,08,21.10
2016,07,20,12,09,21.10
2016,07,20,12,10,21.10
2016,07,20,12,11,21.10
2016,07,20,12,12,21.10
2016,07,20,12,13,21.20
2016,07,20,12,14,21.20
2016,07,20,12,15,21.20
2016,07,20,12,16,21.10
2016,07,20,12,17,21.10
2016,07,20,12,18,21.00
2016,07,20,12,19,21.00
2016,07,20,12,20,20.90
2016,07,20,12,21,20.90
2016,07,20,12,22,20.80
2016,07,20,12,23,20.80
2016,07,20,12,24,20.80
2016,07,20,12,25,20.80
2016,07,20,12,26,20.70
2016,07,20,12,27,20.70
2016,07,20,12,28,20.70
2016,07,20,12,29,20.70
2016,07,20,12,30,20.70
2016,07,20,12,31,20.70
2016,07,20,12,32,20.70
2016,07,20,12,33,20.70
2016,07,20,12,34,20.70
2016,07,20,12,35,20.70
2016,07,20,12,36,20.70
2016,07,20,12,37,20.70
2016,07,20,12,38,20.70
2016,07,20,12,39,20.70
2016,07,20,12,40,20.60
2016,07,20,12,41,20.60
2016,07,20,12,42,20.60
2016,07,20,12,43,20.60
2016,07,20,12,44,20.60
2016,07,20,12,45,20.60
2016,07,20,12,46,20.60
2016,07,20,12,47,20.70
2016,07,20,12,48,20.70
2016,07,20,12,49,20.70
2016,07,20,12,50,20.70
2016,07,20,12,51,20.70
2016,07,20,12,52,20.70
2016,07,20,12,53,20.80
2016,07,20,12,54,20.80
2016,07,20,12,55,20.90
2016,07,20,12,56,20.90
2016,07,20,12,57,20.90
2016,07,20,12,58,21.00
2016,07,20,12,59,21.00
2016,07,20,13,00,21.10
2016,07,20,13,01,21.10
2016,07,20,13,02,21.10
2016,07,20,13,03,21.20
2016,07,20,13,04,21.30
2016,07,20,13,05,21.30
2016,07,20,13,06,21.30
2016,07,20,13,07,21.30
2016,07,20,13,08,21.30
2016,07,20,13,09,21.30
2016,07,20,13,10,21.30
2016,07,20,13,11,21.30
2016,07,20,13,12,21.30
2016,07,20,13,13,21.40
2016,07,20,13,14,21.30
2016,07,20,13,15,21.30
2016,07,20,13,16,21.30
2016,07,20,13,17,21.30
2016,07,20,13,18,21.30
2016,07,20,13,19,21.30
2016,07,20,13,20,21.40
2016,07,20,13,21,21.40
2016,07,20,13,22,21.40
2016,07,20,13,23,21.40
2016,07,20,13,24,21.40
2016,07,20,13,25,21.50
2016,07,20,13,26,21.50
2016,07,20,13,27,21.50
2016,07,20,13,28,21.60
2016,07,20,13,29,21.60
2016,07,20,13,30,21.60
2016,07,20,13,31,21.60
2016,07,20,13,32,21.60
2016,07,20,13,33,21.60
2016,07,20,13,34,21.60
2016,07,20,13,35,21.60
2016,07,20,13,36,21.70
2016,07,20,13,37,21.70
2016,07,20,13,38,21.70
2016,07,20,13,39,21.70
2016,07,20,13,40,21.80
2016,07,20,13,41,21.80
2016,07,20,13,42,21.70
2016,07,20,13,43,21.70
2016,07,20,13,44,21.70
2016,07,20,13,45,21.70
2016,07,20,13,46,21.80
2016,07,20,13,47,21.80
2016,07,20,13,48,21.80
2016,07,20,13,49,21.80
2016,07,20,13,50,21.80
2016,07,20,13,51,21.80
2016,07,20,13,52,21.80
2016,07,20,13,53,21.90
2016,07,20,13,54,21.90
2016,07,20,13,55,22.00
2016,07,20,13,56,22.00
2016,07,20,13,57,22.00
2016,07,20,13,58,22.00
2016,07,20,13,59,22.10
2016,07,20,14,00,22.10
2016,07,20,14,01,22.10
2016,07,20,14,02,22.10
2016,07,20,14,03,22.20
2016,07,20,14,04,22.20
2016,07,20,14,05,22.30
2016,07,20,14,06,22.30
2016,07,20,14,07,22.30
2016,07,20,14,08,22.10
2016,07,20,14,09,22.10
2016,07,20,14,10,22.00
2016,07,20,14,11,21.90
2016,07,20,14,12,21.90
2016,07,20,14,13,21.90
2016,07,20,14,14,21.80
2016,07,20,14,15,21.80
2016,07,20,14,16,21.80
2016,07,20,14,17,21.80
2016,07,20,14,18,21.80
2016,07,20,14,19,21.80
2016,07,20,14,20,21.80
2016,07,20,14,21,21.80
2016,07,20,14,22,21.80
2016,07,20,14,23,21.80
2016,07,20,14,24,21.80
2016,07,20,14,25,21.80
2016,07,20,14,26,21.80
2016,07,20,14,27,21.80
2016,07,20,14,28,21.80
2016,07,20,14,29,21.80
2016,07,20,14,30,21.80
2016,07,20,14,31,21.80
2016,07,20,14,32,21.80
2016,07,20,14,33,21.80
2016,07,20,14,34,21.80
2016,07,20,14,35,21.80
2016,07,20,14,36,21.80
2016,07,20,14,37,21.80
2016,07,20,14,38,21.80
2016,07,20,14,39,21.80
2016,07,20,14,40,21.90
2016,07,20,14,41,21.90
2016,07,20,14,42,22.00
2016,07,20,14,43,22.10
2016,07,20,14,44,22.10
2016,07,20,14,45,22.20
2016,07,20,14,46,22.20
2016,07,20,14,47,22.30
2016,07,20,14,48,22.30
2016,07,20,14,49,22.40
2016,07,20,14,50,22.40
2016,07,20,14,51,22.50
2016,07,20,14,52,22.60
2016,07,20,14,53,22.70
2016,07,20,14,54,22.80
2016,07,20,14,55,22.90
2016,07,20,14,56,23.00
2016,07,20,14,57,23.20
2016,07,20,14,58,23.20
2016,07,20,14,59,23.30
2016,07,20,15,00,23.30
2016,07,20,15,01,23.30
2016,07,20,15,02,23.30
2016,07,20,15,03,23.30
2016,07,20,15,04,23.40
2016,07,20,15,05,23.50
2016,07,20,15,06,23.50
2016,07,20,15,07,23.60
2016,07,20,15,08,23.60
2016,07,20,15,09,23.60
2016,07,20,15,10,23.60
2016,07,20,15,11,23.60
2016,07,20,15,12,23.60
2016,07,20,15,13,23.60
2016,07,20,15,14,23.60
2016,07,20,15,15,23.60
2016,07,20,15,16,23.60
2016,07,20,15,17,23.60
2016,07,20,15,18,23.60
2016,07,20,15,19,23.60
2016,07,20,15,20,23.60
2016,07,20,15,21,23.70
2016,07,20,15,22,23.70
2016,07,20,15,23,23.70
2016,07,20,15,24,23.80
2016,07,20,15,25,23.80
2016,07,20,15,26,23.80
2016,07,20,15,27,23.90
2016,07,20,15,28,24.00
2016,07,20,15,29,24.00
2016,07,20,15,30,24.00
2016,07,20,15,31,24.10
2016,07,20,15,32,24.20
2016,07,20,15,33,24.20
2016,07,20,15,34,24.20
2016,07,20,15,35,24.20
2016,07,20,15,36,24.20
2016,07,20,15,37,24.20
2016,07,20,15,38,24.20
2016,07,20,15,39,24.10
2016,07,20,15,40,24.10
2016,07,20,15,41,24.10
2016,07,20,15,42,24.00
2016,07,20,15,43,24.00
2016,07,20,15,44,24.00
2016,07,20,15,45,23.90
2016,07,20,15,46,23.90
2016,07,20,15,47,23.90
2016,07,20,15,48,23.80
2016,07,20,15,49,23.80
2016,07,20,15,50,23.80
2016,07,20,15,51,23.80
2016,07,20,15,52,23.80
2016,07,20,15,53,23.80
2016,07,20,15,54,23.80
2016,07,20,15,55,23.80
2016,07,20,15,56,23.90
2016,07,20,15,57,23.90
2016,07,20,15,58,24.00
2016,07,20,15,59,24.00
2016,07,20,16,00,24.10
2016,07,20,16,01,24.20
2016,07,20,16,02,24.20
2016,07,20,16,03,24.20
2016,07,20,16,04,24.20
2016,07,20,16,05,24.20
2016,07,20,16,06,24.20
2016,07,20,16,07,24.20
2016,07,20,16,08,24.30
2016,07,20,16,09,24.30
2016,07,20,16,10,24.30
2016,07,20,16,11,24.40
2016,07,20,16,12,24.40
2016,07,20,16,13,24.40
2016,07,20,16,14,24.40
2016,07,20,16,15,24.40
2016,07,20,16,16,24.40
2016,07,20,16,17,24.40
2016,07,20,16,18,24.30
2016,07,20,16,19,24.40
2016,07,20,16,20,24.40
2016,07,20,16,21,24.40
2016,07,20,16,22,24.50
2016,07,20,16,23,24.50
2016,07,20,16,24,24.50
2016,07,20,16,25,24.60
2016,07,20,16,26,24.50
2016,07,20,16,27,24.50
2016,07,20,16,28,24.40
2016,07,20,16,29,24.40
2016,07,20,16,30,24.30
2016,07,20,16,31,24.30
2016,07,20,16,32,24.30
2016,07,20,16,33,24.20
2016,07,20,16,34,24.20
2016,07,20,16,35,24.20
2016,07,20,16,36,24.30
2016,07,20,16,37,24.30
2016,07,20,16,38,24.40
2016,07,20,16,39,24.50
2016,07,20,16,40,24.50
2016,07,20,16,41,24.60
2016,07,20,16,42,24.70
2016,07,20,16,43,24.70
2016,07,20,16,44,24.70
2016,07,20,16,45,24.60
2016,07,20,16,46,24.50
2016,07,20,16,47,24.50
2016,07,20,16,48,24.40
2016,07,20,16,49,24.40
2016,07,20,16,50,24.40
2016,07,20,16,51,24.40
2016,07,20,16,52,24.30
2016,07,20,16,53,24.30
2016,07,20,16,54,24.30
2016,07,20,16,55,24.30
2016,07,20,16,56,24.40
2016,07,20,16,57,24.50
2016,07,20,16,58,24.60
2016,07,20,16,59,24.60
2016,07,20,17,00,24.60
2016,07,20,17,01,24.60
2016,07,20,17,02,24.50
2016,07,20,17,03,24.50
2016,07,20,17,04,24.40
2016,07,20,17,05,24.40
2016,07,20,17,06,24.40
2016,07,20,17,07,24.40
2016,07,20,17,08,24.40
2016,07,20,17,09,24.30
2016,07,20,17,10,24.20
2016,07,20,17,11,24.10
2016,07,20,17,12,24.10
2016,07,20,17,13,24.10
2016,07,20,17,14,24.10
2016,07,20,17,15,24.10
2016,07,20,17,16,24.10
2016,07,20,17,17,24.10
2016,07,20,17,18,24.10
2016,07,20,17,19,24.10
2016,07,20,17,20,24.10
2016,07,20,17,21,24.10
2016,07,20,17,22,24.10